Preview of NWS' New Version of Forecast
This preview is not operational and should not be used for support decisions.

Regional Weather Roundup (RWR)

Issued by National Weather Service (NWS)

                            
000
ASUS46 KSEW 250810
RWRWA 

WASHINGTON REGIONAL WEATHER ROUNDUP
NATIONAL WEATHER SERVICE SEATTLE WA
100 AM PDT TUE JUN 25 2019

NOTE:"FAIR" INDICATES FEW OR NO CLOUDS BELOW 12,000 FEET WITH NO 
SIGNIFICANT WEATHER AND/OR OBSTRUCTIONS TO VISIBILITY.

WAZ507-509-555>559-250900-
SEATTLE, TACOMA, EVERETT, AND VICINITY
  
CITY           SKY/WX    TMP DP  RH WIND       PRES   REMARKS
EVERETT        CLEAR     51  47  86 VRB5      29.93F                  
BOEING FIELD   CLEAR     57  47  69 VRB3      29.92F                  
RENTON         CLEAR     59  50  72 N12       29.91F HAZE             
SEATAC AIRPORT PTCLDY    56  48  74 N8        29.92F                  
JBLM-MCCHORD   CLEAR     54  51  88 CALM      29.92S                  
PUYALLUP       FAIR      48  48 100 CALM      29.92F                  
BREMERTON      CLEAR     53  46  77 NE7       29.92F                  
JBLM-FT LEWIS  CLEAR     55  51  87 CALM      29.91F                  
TACOMA NARROWS CLEAR     54  46  74 N7        29.92F                  
$$
 
WAZ001-503-506-510-514-515-250900-
NORTH INTERIOR
  
CITY           SKY/WX    TMP DP  RH WIND       PRES   REMARKS
BELLINGHAM     MOCLDY    52  47  83 CALM      29.92F                  
FRIDAY HARBOR  PTCLDY    48  45  89 CALM      29.93F                  
EASTSOUND      MOCLDY    55  48  76 SE3       29.91F                  
PORT ANGELES   CLEAR     46  43  89 CALM      29.94F                  
EDIZ HOOK      FAIR      51  47  84 SW7       29.93F                  
PORT TOWNSEND  FAIR      46  43  87 CALM      29.93S                  
NAS WHIDBEY    PTCLDY    53  46  77 SW3       29.97F                  
ARLINGTON      CLEAR     50  47  89 CALM      29.93F                  
BURLINGTON     CLEAR     48  46  93 CALM      29.93F                  
$$
 
WAZ020-022-039-040-504-511-512-250900-
SOUTHWEST INTERIOR
  
CITY           SKY/WX    TMP DP  RH WIND       PRES   REMARKS
SHELTON        CLEAR     51  44  77 NW6       29.90F                  
OLYMPIA        CLEAR     50  45  83 CALM      29.92S                  
CHEHALIS       FAIR      48  48 100 CALM      29.92F                  
KELSO          NOT AVBL                                               
VANCOUVER      PTCLDY    55  48  77 CALM      29.89F                  
SCAPPOOSE, OR  CLEAR     50  46  86 CALM      29.89F                  
PORTLAND, OR   MOCLDY    58  48  69 W5        29.90F                  
$$
 
WAZ021-516-517-250900-
WASHINGTON COAST
  
CITY           SKY/WX    TMP DP  RH WIND       PRES   REMARKS
FORKS          PTCLDY    47  44  90 CALM      29.93F                  
HOQUIAM        CLEAR     50  48  93 E3        29.92F                  
ASTORIA, OR    MOCLDY    51  48  89 CALM      29.92S                  
$$
 
WAZ019-023-024-040-567>569-250900-
CASCADE MOUNTAINS AND COLUMBIA GORGE
  
CITY           SKY/WX    TMP DP  RH WIND       PRES   REMARKS
STAMPEDE PASS  CLEAR     42  39  89 VRB3      29.93F                  
TROUTDALE, OR  MOCLDY    55  48  77 SE7       29.89F                  
HOOD RIVER, OR PTSUNNY   52  43  71 CALM      29.88F                  
THE DALLES, OR PTCLDY    60  41  49 NW7       29.86F                  
$$

WAZ026-027-041>044-520-521-250900-
EAST SLOPES
  
CITY           SKY/WX    TMP DP  RH WIND       PRES   REMARKS
OMAK           PTCLDY    58  43  57 NW13      29.86S                  
WENATCHEE      CLEAR     57  38  48 VRB5      29.85S                  
ELLENSBURG     PTCLDY    54  41  61 NW12      29.85F                  
YAKIMA         MOCLDY    60  39  45 N6        29.84F                  
SUNNYSIDE ARPT MOSUNNY   54  45  71 CALM      29.82                   
YAKIMA TC      FAIR      56  37  49 E10       29.83F                  
$$

WAZ028-034-035-250900-
COLUMBIA BASIN
  
CITY           SKY/WX    TMP DP  RH WIND       PRES   REMARKS
EPHRATA        MOCLDY    62  36  37 N7        29.82F                  
MOSES LAKE     MOCLDY    60  44  55 CALM      29.82S                  
PASCO          MOCLDY    66  40  38 S6        29.81F                  
RICHLAND ARPT  PTSUNNY   62  40  43 W3        29.81S                  
HERMISTON, OR  MOCLDY    61  35  37 SW8       29.83S                  
$$

WAZ036>038-250900-
NORTHEAST WASHINGTON
  
CITY           SKY/WX    TMP DP  RH WIND       PRES   REMARKS
SPOKANE GEIGER MOCLDY    57  42  57 E5        29.87F                  
SPOKANE FELTS  PTCLDY    53  43  68 CALM      29.88S                  
FAIRCHILD AFB  CLEAR     52  36  54 CALM      29.87S                  
COEURDALENE,ID CLEAR     51  46  83 NE7       29.89S                  
DEER PARK      PTCLDY    48  44  86 N3        29.88S                  
$$

WAZ029>033-250900-
SOUTHEAST WASHINGTON
  
CITY           SKY/WX    TMP DP  RH WIND       PRES   REMARKS
PULLMAN        PTCLDY    48  36  63 CALM      29.90S                  
LEWISTON, ID   PTCLDY    57  37  47 SE3       29.85S                  
WALLA WALLA    MOCLDY    59  41  51 S3        29.84R                  
PENDLETON, OR  MOCLDY    53  35  50 E6        29.85S                  
$$